DeKalb, IL

7:20 AM CDT on July 29, 2017 (GMT -0500)
De Kalb Taylor Municipal

Weather History for KDKB - March, 2013

Change the Weather History Date:

Monday, March 18, 2013

  Actual Average (KARR) Record (KARR)
Temperature  
Mean Temperature 26 °F -  
Max Temperature 32 °F 44 °F 80 °F (2012)
Min Temperature 19 °F 26 °F 18 °F (2006)
Degree Days  
Heating Degree Days 40    
Moisture  
Dew Point 24 °F    
Average Humidity 84    
Maximum Humidity 92    
Minimum Humidity 71    
Precipitation  
Precipitation 0.02 in - - ()
Sea Level Pressure  
Sea Level Pressure 29.74 in    
Wind  
Wind Speed 15 mph (SSE)    
Max Wind Speed 33 mph    
Max Gust Speed 41 mph    
Visibility 6 miles    
Events Snow    
Averages and records for this station are not official NWS values.
T = Trace of Precipitation, MM = Missing Value Source: NWS Daily Summary

Daily Weather History Graph

Daily Weather History Graph

Search for Another Location

Airport or City:

Trip Planner

Search our weather history database for the weather conditions in past years. The results will help you decide how hot, cold, wet, or windy it might be!

Date:

Astronomy

Mar. 18, 2013 Rise Set
Actual Time 7:01 AM CDT 7:05 PM CDT
Civil Twilight 6:33 AM CDT 7:32 PM CDT
Nautical Twilight 6:00 AM CDT 8:05 PM CDT
Astronomical Twilight 5:27 AM CDT 8:38 PM CDT
Moon 10:55 AM CDT (3/18) 1:09 AM CDT (3/18)
Length of Visible Light 12h 59m
Length of Day
12h 03m
Waxing Crescent, 41% of the Moon is Illuminated
Mar 18
Waxing Crescent
Mar 19
First Quarter
Mar 27
Full
Apr 2
Last Quarter
Apr 10
New

Hourly Weather History & Observations

Time (CDT) Temp. Windchill Dew Point Humidity Pressure Visibility Wind Dir Wind Speed Gust Speed Precip Events Conditions
12:15 AM 30.2 °F 18.9 °F 23.2 °F 75% 29.96 in 10.0 mi ESE 16.1 mph 19.6 mph N/A   Clear
12:35 AM 29.3 °F 19.1 °F 23.0 °F 77% 29.95 in 10.0 mi East 12.7 mph - N/A   Clear
12:55 AM 29.1 °F 18.4 °F 23.0 °F 78% 29.94 in 10.0 mi East 13.8 mph - N/A   Clear
1:15 AM 28.8 °F 17.5 °F 22.6 °F 78% 29.92 in 10.0 mi East 15.0 mph - N/A   Clear
1:35 AM 28.4 °F 17.5 °F 22.5 °F 78% 29.90 in 10.0 mi East 13.8 mph - N/A   Clear
1:55 AM 28.2 °F 16.3 °F 22.5 °F 79% 29.90 in 10.0 mi East 16.1 mph - N/A   Scattered Clouds
2:15 AM 28.4 °F 18.0 °F 22.6 °F 79% 29.90 in 10.0 mi ESE 12.7 mph - N/A   Mostly Cloudy
2:35 AM 28.4 °F 19.7 °F 22.8 °F 80% 29.89 in 10.0 mi East 9.2 mph - N/A   Overcast
2:55 AM 28.4 °F 17.5 °F 23.0 °F 80% 29.88 in 10.0 mi East 13.8 mph - N/A   Overcast
3:15 AM 28.4 °F 18.5 °F 23.0 °F 80% 29.86 in 10.0 mi East 11.5 mph - N/A   Overcast
3:35 AM 28.4 °F 18.0 °F 23.0 °F 80% 29.86 in 10.0 mi East 12.7 mph - N/A   Overcast
3:55 AM 28.4 °F 16.2 °F 23.0 °F 80% 29.83 in 10.0 mi East 17.3 mph - N/A   Overcast
4:15 AM 28.4 °F 16.6 °F 23.0 °F 80% 29.82 in 10.0 mi East 16.1 mph - N/A   Overcast
4:35 AM 28.4 °F 18.0 °F 23.0 °F 80% 29.80 in 10.0 mi East 12.7 mph - N/A   Overcast
4:55 AM 28.6 °F 17.7 °F 23.2 °F 80% 29.79 in 10.0 mi East 13.8 mph - N/A   Overcast
5:15 AM 28.8 °F 19.0 °F 23.4 °F 80% 29.79 in 10.0 mi East 11.5 mph - N/A   Overcast
5:35 AM 28.4 °F 18.5 °F 23.2 °F 81% 29.78 in 5.0 mi East 11.5 mph - N/A Snow Light Snow
5:55 AM 28.0 °F 17.5 °F 23.9 °F 84% 29.78 in 2.5 mi East 12.7 mph - N/A Snow Light Snow
6:15 AM 27.9 °F 19.1 °F 24.3 °F 86% 29.77 in 1.8 mi East 9.2 mph - N/A Snow Light Snow
6:35 AM 27.9 °F 19.1 °F 24.6 °F 88% 29.77 in 3.0 mi ENE 9.2 mph - N/A Snow Light Snow
6:55 AM 27.9 °F 18.4 °F 24.6 °F 88% 29.76 in 4.0 mi East 10.4 mph - N/A Snow Light Snow
7:15 AM 27.9 °F 18.4 °F 24.8 °F 88% 29.75 in 2.5 mi East 10.4 mph - 0.01 in Snow Light Snow
7:35 AM 28.0 °F 18.1 °F 25.2 °F 89% 29.74 in 2.0 mi East 11.5 mph - 0.01 in Snow Light Snow
7:55 AM 28.0 °F 18.6 °F 25.2 °F 89% 29.73 in 1.8 mi East 10.4 mph - 0.01 in Snow Light Snow
8:15 AM 28.0 °F 18.1 °F 25.3 °F 90% 29.72 in 2.5 mi ENE 11.5 mph - N/A Snow Light Snow
8:35 AM 28.4 °F 18.5 °F 25.7 °F 90% 29.71 in 2.5 mi ENE 11.5 mph - N/A Snow Light Snow
8:55 AM 28.8 °F 19.5 °F 26.1 °F 90% 29.70 in 4.0 mi ENE 10.4 mph - N/A Snow Light Snow
9:15 AM 29.1 °F 20.6 °F 26.4 °F 90% 29.70 in 3.0 mi East 9.2 mph - N/A   Overcast
9:35 AM 29.1 °F 20.6 °F 26.4 °F 90% 29.69 in 3.0 mi East 9.2 mph - N/A   Overcast
9:55 AM 29.3 °F 20.2 °F 26.6 °F 90% 29.69 in 2.5 mi East 10.4 mph - N/A   Overcast
10:15 AM 29.3 °F 21.5 °F 26.6 °F 90% 29.68 in 1.8 mi East 8.1 mph - N/A   Overcast
10:35 AM 30.2 °F 24.3 °F 27.7 °F 90% 29.67 in 1.2 mi ENE 5.8 mph - 0.01 in Snow Light Snow
10:55 AM 30.2 °F 24.3 °F 27.9 °F 91% 29.67 in 1.8 mi East 5.8 mph - 0.01 in Snow Light Snow
11:15 AM 30.2 °F 24.3 °F 27.9 °F 91% 29.67 in 2.0 mi SE 5.8 mph - N/A Snow Light Snow
11:35 AM 30.2 °F 23.4 °F 27.9 °F 91% 29.67 in 2.0 mi SE 6.9 mph - N/A Snow Light Snow
11:55 AM 30.2 °F 25.4 °F 27.9 °F 91% 29.67 in 1.8 mi SSE 4.6 mph - N/A   Overcast
12:15 PM 30.2 °F 25.4 °F 27.9 °F 91% 29.65 in 1.5 mi SSE 4.6 mph - N/A   Overcast
12:35 PM 30.9 °F 25.2 °F 28.6 °F 91% 29.64 in 1.8 mi SSW 5.8 mph - N/A   Overcast
12:55 PM 30.9 °F 23.5 °F 28.4 °F 90% 29.64 in 2.0 mi SSW 8.1 mph - N/A   Overcast
1:15 PM 31.1 °F 23.7 °F 28.9 °F 92% 29.63 in 2.5 mi SSW 8.1 mph - N/A Snow Light Snow
1:35 PM 31.3 °F 22.7 °F 28.8 °F 90% 29.63 in 2.0 mi SW 10.4 mph - N/A Snow Light Snow
1:55 PM 31.1 °F 23.1 °F 28.4 °F 90% 29.62 in 2.0 mi SW 9.2 mph - N/A Snow Light Snow
2:15 PM 31.3 °F 22.7 °F 28.6 °F 90% 29.61 in 2.0 mi SW 10.4 mph - N/A Snow Light Snow
2:35 PM 32.0 °F 21.6 °F 29.5 °F 90% 29.62 in 3.0 mi WSW 15.0 mph - N/A Snow Light Snow
2:55 PM 32.0 °F 22.5 °F 29.3 °F 90% 29.61 in 10.0 mi WSW 12.7 mph 19.6 mph N/A   Overcast
3:15 PM 32.2 °F 21.4 °F 29.7 °F 90% 29.61 in 7.0 mi WSW 16.1 mph - N/A Snow Light Snow
3:35 PM 32.0 °F 21.2 °F 29.3 °F 90% 29.62 in 1.5 mi WSW 16.1 mph 20.7 mph N/A Snow Light Snow
3:55 PM 32.0 °F 22.1 °F 29.3 °F 90% 29.62 in 2.5 mi WSW 13.8 mph 19.6 mph N/A Snow Light Snow
4:15 PM 32.0 °F 21.2 °F 29.5 °F 90% 29.62 in 7.0 mi WSW 16.1 mph 20.7 mph N/A   Overcast
4:35 PM 32.0 °F 20.8 °F 29.8 °F 92% 29.62 in 7.0 mi WSW 17.3 mph 26.5 mph N/A   Overcast
4:55 PM 32.4 °F 21.3 °F 30.2 °F 92% 29.62 in 5.0 mi West 17.3 mph 23.0 mph N/A   Overcast
5:15 PM 32.2 °F 20.0 °F 30.2 °F 92% 29.62 in 4.0 mi West 20.7 mph 32.2 mph N/A   Overcast
5:35 PM 30.6 °F 16.2 °F 27.9 °F 90% 29.63 in 5.0 mi West 27.6 mph 38.0 mph N/A   Overcast
5:55 PM 30.2 °F 16.8 °F 26.6 °F 86% 29.65 in 10.0 mi West 23.0 mph 32.2 mph N/A   Overcast
6:15 PM 29.3 °F 13.7 °F 24.6 °F 83% 29.67 in 10.0 mi West 31.1 mph 36.8 mph N/A   Overcast
6:35 PM 27.9 °F 11.8 °F 23.5 °F 84% 29.68 in 10.0 mi West 31.1 mph 38.0 mph N/A   Overcast
6:55 PM 26.6 °F 13.1 °F 22.1 °F 83% 29.69 in 10.0 mi West 19.6 mph 34.5 mph N/A   Overcast
7:15 PM 25.5 °F 8.8 °F 20.3 °F 81% 29.70 in 10.0 mi West 29.9 mph 39.1 mph N/A   Overcast
7:35 PM 24.8 °F 7.3 °F 18.7 °F 78% 29.72 in 10.0 mi West 32.2 mph 40.3 mph N/A   Overcast
7:55 PM 23.9 °F 7.8 °F 17.6 °F 77% 29.74 in 10.0 mi West 25.3 mph 36.8 mph N/A   Overcast
8:15 PM 23.4 °F 5.1 °F 15.6 °F 72% 29.74 in 10.0 mi West 33.4 mph 40.3 mph N/A   Overcast
8:35 PM 23.0 °F 6.0 °F 14.9 °F 71% 29.75 in 10.0 mi West 27.6 mph 41.4 mph N/A   Overcast
8:55 PM 22.8 °F 7.4 °F 15.4 °F 73% 29.76 in 10.0 mi West 21.9 mph 34.5 mph N/A   Overcast
9:15 PM 22.1 °F 4.2 °F 16.5 °F 79% 29.77 in 4.0 mi West 29.9 mph 36.8 mph N/A Snow Light Snow
9:35 PM 21.6 °F 4.7 °F 14.0 °F 73% 29.78 in 10.0 mi West 25.3 mph 34.5 mph N/A   Overcast
9:55 PM 21.2 °F 3.0 °F 13.8 °F 73% 29.78 in 10.0 mi West 29.9 mph 35.7 mph N/A   Overcast
10:15 PM 20.8 °F 3.7 °F 12.7 °F 71% 29.79 in 10.0 mi West 25.3 mph 39.1 mph N/A   Overcast
10:35 PM 20.1 °F 2.4 °F 12.7 °F 73% 29.79 in 10.0 mi West 26.5 mph 32.2 mph N/A   Overcast
10:55 PM 19.4 °F 1.8 °F 12.2 °F 74% 29.79 in 10.0 mi West 25.3 mph 34.5 mph N/A   Overcast
11:15 PM 19.9 °F 3.2 °F 12.6 °F 73% 29.80 in 10.0 mi West 23.0 mph 36.8 mph N/A   Overcast
11:35 PM 19.4 °F 2.8 °F 11.3 °F 71% 29.80 in 10.0 mi West 21.9 mph 33.4 mph N/A   Overcast